Regional Weather Roundup
Issued by NWS

Home | Current Version | Previous Version | Graphics & Text | Print | Product List | Glossary On
Versions: 1 2 3 4 5 6 7 8 9 10 11 12 13 14 15 16 17 18 19 20 21 22 23 24 25 26 27 28 29 30 31 32 33 34 35 36 37 38 39 40 41 42 43 44 45 46 47 48 49 50
000
ASUS44 KMEG 252210
RWRTN
TENNESSEE HOURLY STATE WEATHER ROUNDUP
NATIONAL WEATHER SERVICE MEMPHIS TN
400 PM CST SAT FEB 25 2017

TNZ002-004-019-021-049-052-054-088>092-252300-
WEST TENNESSEE

CITY           SKY/WX    TMP DP  RH WIND       PRES   REMARKS
MEMPHIS INTL   SUNNY     47  21  35 NW9       30.14R
NWS MEMPHIS      N/A     47 N/A N/A MISG        N/A
JACKSON        SUNNY     45  21  38 NW14      30.12R
UNION CITY     SUNNY     41  14  33 CALM      30.11R
PARIS          SUNNY     39  19  45 W9        30.09S WCI  33
HUNTINGDON     SUNNY     45  21  39 NW8G17    30.09S
$$

TNZ008-025-027-028-033-062-065-066-252300-
NORTH MIDDLE TENNESSEE

CITY           SKY/WX    TMP DP  RH WIND       PRES   REMARKS
NASHVILLE      MOSUNNY   48  16  27 NW7G17    30.04R
PORTLAND       SUNNY     41  19  42 NW8       30.05R
CLARKSVILLE    SUNNY     44  18  35 NW15G22   30.06R
SMYRNA         SUNNY     48  17  29 W3        30.05R
COOKEVILLE     SUNNY     45  19  36 NW6G15    30.00R
GALLATIN       SUNNY     45  18  33 NW15      30.07R
CROSSVILLE     SUNNY     41  15  35 W18G25    29.97R
$$

TNZ061-075-076-078-094-096-097-252300-
SOUTH MIDDLE TENNESSEE

CITY           SKY/WX    TMP DP  RH WIND       PRES   REMARKS
FAYETTEVILLE   SUNNY     50  21  32 VRB7G18   30.02R
TULLAHOMA      SUNNY     46  10  23 NW13      30.02R
WINCHESTER     SUNNY     48  19  32 NW9       30.01R
MCMINNVILLE    SUNNY     46  19  34 NW8       30.01R
COLUMBIA       SUNNY     48  19  32 VRB6      30.03R
SHELBYVILLE    SUNNY     50  21  32 NW10      30.04R
$$

TNZ017-018-042-046-047-252300-
NORTHEAST TENNESSEE

CITY           SKY/WX    TMP DP  RH WIND       PRES   REMARKS
TRI CITIES     MOSUNNY   51  28  41 W15G28    29.84R
ELIZABETHTON   PTSUNNY   52  28  40 NW13G22   29.81R
$$

TNZ012-013-036-069-073-074-252300-
CENTRAL EAST TENNESSEE

CITY           SKY/WX    TMP DP  RH WIND       PRES   REMARKS
KNOXVILLE      MOSUNNY   51  21  30 W10G20    29.92R
OAK RIDGE      MOSUNNY   51  19  28 W8G20     29.96R
GATLINBURG     SUNNY     52  23  32 W15       29.90R
MORRISTOWN     SUNNY     48  25  40 N16G23    29.89R
JACKSBORO      SUNNY     46  21  36 CALM      29.98R
$$

TNZ083-085-099-252300-
SOUTHEAST TENNESSEE

CITY           SKY/WX    TMP DP  RH WIND       PRES   REMARKS
CHATTANOOGA    MOSUNNY   54  18  24 W13       29.98R
$$

SKY/WX REPORTED AS FAIR MEANS FEW OR NO CLOUDS BELOW
12 THOUSAND FEET.





USA.gov is the U.S. government's official web portal to all federal, state and local government web resources and services.